Wind_Speed
9 17 31 30 29 27 25 23 22 23 24 25 25 27 27 25 24 24 25 26 25 24 22 20 21 19 19 18 16 14 12 9 9 12 11 12 14 16 18 19 19 15 20
11 18 31 29 28 27 26 23 21 21 23 25 26 27 26 25 25 25 26 26 25 23 20 19 19 17 16 16 15 15 15 12 10 15 14 14 16 16 18 19 15 18 20
12 20 30 29 29 28 27 24 21 21 23 25 26 26 26 24 24 25 26 25 24 22 19 19 18 17 17 15 15 15 15 14 14 15 14 12 13 16 18 19 17 20 20
10 19 25 31 29 29 28 25 23 22 24 26 26 26 25 24 24 24 25 25 24 20 19 18 17 18 17 15 15 16 15 14 16 15 13 12 13 15 18 18 18 20 20
11 19 23 32 31 30 29 27 25 24 25 26 27 26 25 24 24 24 24 24 23 20 18 17 17 16 16 16 16 17 16 16 18 16 10 12 14 15 18 18 18 19 19
11 17 20 30 32 30 30 28 27 25 24 25 25 25 24 24 24 24 23 24 23 21 17 16 17 16 16 16 16 17 17 18 17 13 12 12 14 17 19 18 18 19 19
10 14 13 26 27 28 28 27 26 25 24 24 25 25 24 24 23 24 24 24 22 20 17 16 17 17 16 16 17 17 18 18 16 12 11 12 13 18 19 20 20 21 20
10 12 13 21 24 25 27 26 25 24 24 24 23 23 24 24 24 24 24 24 22 19 18 17 16 17 18 18 18 18 18 18 14 13 13 14 15 20 20 21 21 21 22
8 14 15 17 21 26 26 25 24 23 23 22 22 22 22 23 25 24 24 24 20 19 18 18 17 16 19 19 19 18 19 20 15 15 14 14 18 21 20 21 22 23 22
7 12 15 16 15 17 18 24 23 22 22 22 21 21 21 21 23 24 25 24 21 20 19 19 19 18 19 20 19 19 19 20 15 16 17 15 17 22 21 23 24 23 23
7 12 13 13 13 15 16 17 22 22 22 22 22 21 20 18 20 21 23 24 23 22 21 19 19 19 18 20 21 20 20 17 18 17 17 18 20 25 23 25 25 25 24
7 12 16 15 13 15 14 15 17 18 19 19 18 18 19 19 19 19 21 24 24 23 22 20 19 19 19 17 18 20 19 18 19 18 17 19 19 25 23 23 27 26 25
4 8 13 17 19 18 16 14 14 17 19 21 21 21 21 20 20 21 19 21 20 22 19 19 18 19 18 18 18 19 21 18 17 17 17 19 20 24 23 23 26 26 26
7 6 9 13 16 19 18 18 16 19 19 21 25 26 24 23 21 20 22 20 22 21 22 19 19 19 19 20 18 19 18 17 17 16 16 18 21 22 24 32 29 28 28
8 7 9 12 16 18 22 21 22 22 23 23 21 23 23 20 21 20 20 21 21 20 22 20 19 19 19 19 19 17 18 18 18 16 15 17 18 24 25 26 30 29 29
10 8 8 11 16 18 20 22 24 24 25 23 22 24 27 22 23 22 22 21 22 21 21 20 19 18 18 18 18 17 18 18 18 17 19 16 17 23 27 33 32 29 28
12 11 10 9 13 19 22 23 24 24 25 26 24 26 28 30 24 24 22 22 21 19 18 17 16 16 16 16 18 17 18 17 18 19 20 23 21 17 29 31 34 30 28
16 16 14 12 12 15 22 24 25 25 25 25 24 25 28 34 27 26 22 23 22 22 19 19 20 19 19 18 17 17 19 19 19 19 23 27 28 16 30 32 26 25 27
14 18 20 16 15 14 19 24 27 29 28 26 25 26 28 35 32 28 25 21 22 27 20 20 20 20 16 18 17 16 17 19 19 16 25 22 21 17 24 30 27 24 20
15 16 19 21 19 18 18 22 26 28 28 29 29 29 27 32 35 30 25 24 25 26 19 19 18 19 18 16 14 13 15 13 13 14 19 21 16 20 29 27 26 21 24
16 18 19 21 21 20 19 20 25 28 30 32 33 33 29 27 35 32 28 26 28 27 23 22 17 20 18 17 13 10 8 12 14 15 16 19 18 21 12 20 23 21 25
18 19 20 21 23 22 21 21 25 27 29 31 30 30 27 31 34 34 31 30 29 25 25 23 20 17 15 23 8 8 3 3 11 16 17 22 22 15 15 14 19 20 21
23 23 23 23 23 24 23 23 24 28 27 24 28 29 34 32 33 33 32 31 27 25 25 22 22 21 15 22 20 8 3 4 3 8 19 16 20 20 19 22 19 16 17
20 23 24 23 24 24 23 23 24 28 28 32 31 33 32 34 36 36 37 37 32 28 25 24 24 22 20 20 19 24 12 8 5 3 9 21 22 26 27 25 28 23 19
20 24 25 23 25 26 24 23 26 29 32 30 26 28 29 35 40 38 38 37 40 36 31 26 24 26 25 22 23 18 16 12 10 3 3 7 19 26 27 30 28 29 25
21 22 24 24 27 26 25 25 27 32 35 30 27 26 27 31 36 39 37 34 33 30 31 33 31 27 26 24 26 21 23 13 14 8 3 9 12 14 25 29 33 32 29
Wind_Direction
202 177 181 177 179 180 183 184 188 193 199 198 187 184 180 176 174 172 171 170 167 163 166 168 169 173 175 177 181 182 177 165 167 167 155 150 149 148 147 141 132 141 141
187 182 186 185 182 180 182 183 186 193 196 195 187 185 184 181 178 176 174 173 169 168 167 168 172 174 174 176 180 180 176 169 160 161 160 154 154 154 152 141 140 150 146
191 182 184 188 183 181 181 183 183 188 190 189 187 187 187 185 184 181 178 176 173 171 174 175 174 180 180 182 181 180 179 174 169 165 154 152 157 159 155 150 159 151 149
203 187 181 189 186 183 183 182 181 185 186 188 188 189 190 190 188 185 182 181 179 179 181 177 177 182 187 186 183 180 175 176 174 165 161 159 161 167 162 163 161 154 152
212 195 191 190 189 186 184 184 183 184 187 190 192 192 193 193 193 189 185 183 182 183 189 183 184 188 189 189 187 185 184 182 175 167 173 168 169 176 166 166 162 160 149
204 198 205 195 192 190 187 185 186 187 188 192 193 193 197 197 195 191 189 187 186 187 194 189 191 193 187 187 186 186 186 182 174 180 180 175 177 180 170 168 169 165 160
200 201 207 205 202 194 191 190 189 189 191 192 193 194 196 199 198 194 192 192 191 194 195 193 198 196 194 190 186 186 187 183 179 189 187 188 183 182 175 169 173 169 164
205 194 204 205 205 205 197 195 194 194 195 195 194 194 196 198 200 196 196 195 197 200 196 199 205 199 200 197 194 193 195 186 187 197 192 191 194 185 179 177 177 167 163
204 193 194 196 203 207 205 201 200 201 200 200 199 196 196 197 199 199 200 200 202 204 203 199 205 207 203 204 201 202 202 192 196 196 197 200 199 193 182 180 177 171 168
217 195 190 190 198 202 206 207 206 206 206 206 205 203 200 197 199 201 201 204 204 209 208 205 207 209 209 210 210 210 208 202 203 201 196 199 208 201 187 180 179 176 173
220 193 186 186 192 196 203 213 210 212 213 211 208 207 204 199 203 208 206 207 208 208 208 210 211 213 215 214 215 214 210 208 212 212 199 204 207 205 192 183 182 177 174
232 208 194 193 192 198 199 200 208 215 216 213 211 207 204 207 209 208 215 210 208 207 209 214 218 218 220 215 216 214 209 219 218 220 214 215 207 204 197 189 183 179 176
298 229 216 204 202 204 205 206 204 210 213 215 212 210 210 212 212 207 211 215 212 211 212 213 217 221 213 215 210 207 214 221 225 221 223 221 209 203 197 194 188 181 178
293 263 234 221 215 210 207 213 216 213 213 216 213 207 205 206 212 209 208 212 212 211 213 210 211 213 213 215 214 209 219 222 227 228 227 222 208 206 204 195 186 183 179
304 281 264 234 223 221 213 212 213 217 219 220 218 215 211 209 210 208 213 207 212 214 209 207 206 205 211 216 218 216 219 226 231 229 222 223 216 207 208 191 183 180 180
332 326 307 258 241 234 229 225 219 217 218 218 220 219 217 216 217 207 206 208 213 213 210 207 200 207 213 216 218 214 223 231 230 231 231 228 218 210 214 194 184 179 182
329 326 325 303 262 242 239 238 235 229 220 218 220 219 218 217 216 213 208 210 204 210 208 201 197 203 210 209 213 214 223 228 231 235 235 231 226 220 222 196 182 181 181
330 325 320 314 295 263 245 240 236 232 228 225 222 217 215 217 215 212 210 210 202 197 203 206 201 199 207 213 216 216 224 229 231 230 233 235 229 251 221 188 185 182 184
330 326 321 316 306 294 263 247 239 235 228 226 223 221 215 214 213 211 210 211 202 202 201 210 204 200 194 212 223 222 229 230 225 220 231 233 231 253 217 186 183 180 196
329 323 316 313 310 302 287 253 242 236 231 227 227 224 217 212 211 209 208 206 202 201 201 203 204 204 204 207 204 213 225 219 213 215 218 217 241 269 199 190 189 186 196
333 323 316 310 309 306 291 271 243 235 229 227 226 226 217 213 208 204 206 205 206 201 197 199 199 199 195 193 175 183 199 212 211 216 221 232 242 239 192 189 188 192 199
337 331 320 311 308 303 291 276 264 242 238 234 230 225 216 214 206 201 202 203 201 197 193 196 194 188 194 192 165 143 185 232 214 217 218 221 232 247 241 198 199 198 193
336 333 325 315 308 303 293 280 268 257 243 229 226 222 217 211 207 198 200 200 198 198 195 192 192 190 183 190 194 175 173 204 129 204 218 215 234 235 246 229 204 208 200
335 329 325 318 311 306 298 283 263 258 235 228 227 217 214 203 202 200 201 201 198 192 194 194 201 200 198 191 199 212 229 164 186 173 205 220 220 227 232 232 217 203 210
338 331 326 323 316 310 301 283 266 254 246 237 230 221 211 198 200 202 203 191 193 197 200 201 200 208 207 200 200 197 212 204 217 156 168 195 210 221 228 225 212 209 205
338 336 328 331 322 312 304 289 262 259 247 233 224 219 203 195 194 200 204 193 199 188 189 204 203 209 209 210 207 205 211 204 208 193 185 194 206 208 211 217 212 205 204
Height
747 748 750 753 756 759 762 765 768 770 772 774 777 779 781 782 784 786 789 791 792 795 798 800 802 804 804 806 808 809 811 813 814 815 816 817 820 822 821 822 823 827 825
745 748 749 753 756 759 762 765 767 770 772 775 777 780 783 785 785 788 790 793 794 796 799 801 803 804 806 807 808 810 811 813 814 816 817 819 821 822 823 824 826 827 828
746 747 748 753 756 758 761 764 767 770 772 775 778 780 783 786 788 790 792 795 797 798 800 801 803 805 806 808 809 810 812 813 815 816 819 821 823 824 826 826 825 827 830
748 749 749 751 754 757 760 763 766 769 771 774 777 780 783 786 789 791 792 795 798 800 801 802 804 804 806 808 810 811 813 815 816 818 819 820 824 824 826 828 828 829 830
749 750 750 749 752 755 759 762 765 768 770 772 775 778 781 785 788 791 792 795 798 800 802 803 805 805 807 809 810 812 813 815 816 818 819 820 823 825 826 828 829 830 832
748 750 752 751 752 754 758 761 764 767 770 773 776 779 782 784 787 790 793 796 798 800 803 804 805 808 808 809 811 813 814 815 818 819 819 820 823 824 825 828 830 832 832
748 751 753 753 756 756 759 762 765 768 771 773 775 777 780 783 786 789 792 795 798 799 802 805 806 808 810 810 811 812 813 815 818 819 820 822 823 823 826 828 829 832 832
748 750 753 753 757 760 761 763 766 768 771 774 776 778 780 782 785 788 791 794 797 799 801 804 806 807 809 810 811 813 814 815 818 819 819 822 824 824 825 828 830 831 833
747 748 751 753 755 758 761 763 766 769 773 774 777 778 780 782 784 788 791 794 796 798 800 801 804 806 809 810 810 812 814 815 818 818 820 821 821 825 825 828 831 832 834
747 747 750 753 755 758 761 763 765 768 772 775 777 778 780 782 784 787 789 792 794 797 798 799 802 804 806 809 810 812 813 815 817 817 817 818 821 825 825 826 830 832 834
747 747 748 750 753 756 760 763 764 768 770 773 775 778 781 783 784 787 788 789 792 794 795 799 801 803 805 807 809 811 812 814 814 815 814 816 817 823 824 826 829 831 834
743 746 745 748 750 754 757 760 763 767 769 771 775 776 780 782 783 785 788 789 790 792 794 796 799 801 803 807 807 808 812 811 812 812 813 814 816 820 823 824 828 831 834
741 743 745 745 747 751 754 757 759 763 766 767 770 773 775 778 780 781 785 788 790 791 793 793 796 800 801 803 805 805 808 809 810 811 811 812 815 818 821 822 827 829 833
740 740 743 745 747 747 750 754 757 759 761 763 764 765 769 773 776 777 778 783 786 787 789 790 791 795 797 800 802 803 805 806 807 809 809 810 813 816 818 821 825 829 831
739 740 741 743 743 745 745 746 750 753 756 758 761 763 765 767 771 772 776 777 781 783 785 786 788 790 793 796 799 800 802 804 805 806 807 808 810 814 816 815 822 826 830
741 740 740 741 741 743 744 744 744 746 749 753 755 757 760 764 767 768 770 772 776 779 781 783 783 787 790 793 795 797 800 801 802 804 803 806 806 810 813 815 819 823 828
739 740 740 739 739 739 740 741 743 742 743 745 747 751 753 758 762 764 765 768 770 775 778 779 781 783 787 789 792 794 797 798 799 800 799 799 801 808 810 804 814 820 825
737 737 738 738 737 736 735 736 736 737 739 740 742 742 746 750 755 758 760 763 765 769 773 776 777 778 783 787 789 791 793 794 795 797 796 795 796 805 806 782 812 817 822
739 736 733 734 733 733 732 731 730 731 731 734 736 737 738 741 747 751 754 759 761 765 768 772 774 775 779 783 786 788 790 791 792 793 793 793 795 800 800 804 812 814 821
738 737 734 731 730 729 727 725 724 724 725 727 728 730 730 733 738 745 749 752 756 761 764 768 771 773 776 780 783 786 788 789 790 791 792 792 796 796 798 803 808 812 816
736 735 734 730 728 726 723 719 716 714 716 717 718 722 723 726 731 736 741 747 751 755 758 763 768 770 773 776 781 784 786 788 788 789 789 791 795 795 791 802 805 811 816
734 733 731 728 725 723 720 717 712 708 708 710 713 714 714 721 724 728 733 739 745 750 754 758 764 767 770 773 777 782 785 788 786 787 789 790 796 793 797 799 805 809 812
731 730 728 725 723 719 716 712 708 703 702 703 705 705 708 714 718 720 726 734 740 745 750 754 759 763 765 769 772 776 782 779 783 785 786 788 789 790 795 799 802 806 809
732 730 726 722 717 713 711 706 703 697 690 692 694 696 700 705 709 714 716 723 729 738 744 749 755 760 763 764 769 770 773 773 777 782 784 785 788 790 792 795 798 802 807
732 728 723 717 713 708 705 703 699 692 685 685 688 691 694 695 699 706 706 706 710 723 734 741 748 754 757 760 762 765 770 771 771 772 778 781 784 787 789 791 794 798 802
729 727 722 713 708 703 698 694 690 685 681 677 680 685 687 688 692 697 701 706 710 712 718 729 737 746 751 755 757 759 763 764 767 769 770 775 777 780 782 787 790 792 797